Holland, MI

9:26 AM EDT on April 20, 2018 (GMT -0400)
Tulip City

Weather History for KBIV - April, 2014

Change the Weather History Date:

Thursday, April 3, 2014

  Actual Average Record
Temperature  
Mean Temperature 41 °F 44 °F  
Max Temperature 46 °F 53 °F 80 °F (1956)
Min Temperature 35 °F 34 °F 13 °F (1965)
Degree Days  
Heating Degree Days 24 22  
Month to date heating degree days 70 66  
Since 1 July heating degree days 6354 5440  
Cooling Degree Days 0 0  
Month to date cooling degree days 0 0  
Year to date cooling degree days 0 0  
Moisture  
Dew Point 29 °F    
Average Humidity 60    
Maximum Humidity 70    
Minimum Humidity 49    
Precipitation  
Precipitation 0.15 in 0.07 in 1.37 in (1967)
Month to date precipitation 0.22 0.22  
Year to date precipitation 5.32 6.38  
Sea Level Pressure  
Sea Level Pressure 29.97 in    
Wind  
Wind Speed 17 mph (East)    
Max Wind Speed 31 mph    
Max Gust Speed 40 mph    
Visibility 10 miles    
Events Rain    
T = Trace of Precipitation, MM = Missing Value Source: NWS Daily Summary

Daily Weather History Graph

Daily Weather History Graph

Search for Another Location

Airport or City:

Astronomy

Apr. 03, 2014 Rise Set
Actual Time 7:23 AM EDT 8:12 PM EDT
Civil Twilight 6:54 AM EDT 8:41 PM EDT
Nautical Twilight 6:20 AM EDT 9:15 PM EDT
Astronomical Twilight 5:45 AM EDT 9:51 PM EDT
Moon 9:47 AM EDT (4/3) No Moon Set
Length of Visible Light 13h 46m
Length of Day
12h 49m
Waxing Crescent, 17% of the Moon is Illuminated
Apr 3
Waxing Crescent
Apr 7
First Quarter
Apr 15
Full
Apr 22
Last Quarter
Apr 29
New

Hourly Weather History & Observations

Time (EDT) Temp. Windchill Dew Point Humidity Pressure Visibility Wind Dir Wind Speed Gust Speed Precip Events Conditions
12:53 AM 46.0 °F 41.0 °F 28.0 °F 50% 30.15 in 10.0 mi ENE 10.4 mph - N/A   Overcast
1:53 AM 45.0 °F 38.9 °F 27.0 °F 49% 30.13 in 10.0 mi ENE 12.7 mph - N/A   Overcast
2:53 AM 44.1 °F 38.1 °F 28.0 °F 53% 30.12 in 10.0 mi ENE 11.5 mph - N/A   Overcast
3:53 AM 43.0 °F 35.1 °F 28.9 °F 58% 30.10 in 10.0 mi ENE 17.3 mph 23.0 mph N/A   Overcast
4:53 AM 42.1 °F 33.9 °F 28.0 °F 58% 30.08 in 10.0 mi East 17.3 mph 24.2 mph N/A   Overcast
5:53 AM 42.1 °F 33.9 °F 28.0 °F 58% 30.05 in 10.0 mi East 17.3 mph 24.2 mph N/A   Overcast
6:53 AM 41.0 °F 33.1 °F 28.0 °F 60% 30.05 in 10.0 mi East 15.0 mph 24.2 mph 0.00 in Rain Light Rain
7:53 AM 41.0 °F 33.1 °F 28.0 °F 60% 30.06 in 10.0 mi East 15.0 mph 24.2 mph 0.00 in   Overcast
8:53 AM 39.0 °F 31.0 °F 27.0 °F 62% 30.04 in 10.0 mi East 13.8 mph 21.9 mph N/A   Overcast
9:53 AM 37.9 °F 27.6 °F 26.1 °F 62% 30.02 in 10.0 mi East 20.7 mph 27.6 mph N/A   Overcast
10:53 AM 36.0 °F 26.0 °F 30.0 °F 79% 30.02 in 7.0 mi East 17.3 mph 28.8 mph 0.04 in Rain Light Rain
11:25 AM 35.1 °F 24.8 °F 30.9 °F 85% 29.99 in 7.0 mi East 17.3 mph 31.1 mph 0.05 in Rain Light Freezing Rain
11:53 AM 35.1 °F 24.5 °F 32.0 °F 89% 30.00 in 8.0 mi East 18.4 mph 28.8 mph 0.09 in Rain Light Freezing Rain
12:40 PM 36.0 °F 25.0 °F - N/A% 29.93 in 10.0 mi East 20.7 mph 28.8 mph 0.01 in Rain Light Rain
12:53 PM 36.0 °F 24.7 °F - N/A% 29.94 in 10.0 mi East 21.9 mph 33.4 mph 0.02 in Rain Light Rain
1:53 PM 37.0 °F 25.6 °F - N/A% 29.88 in 10.0 mi East 24.2 mph 33.4 mph 0.00 in   Overcast
2:32 PM 39.0 °F 28.3 °F - N/A% 29.85 in 10.0 mi East 24.2 mph 31.1 mph N/A   Mostly Cloudy
2:53 PM 39.0 °F 28.8 °F - N/A% 29.86 in 10.0 mi East 21.9 mph 32.2 mph N/A   Overcast
3:53 PM 39.9 °F 31.1 °F - N/A% 29.86 in 10.0 mi East 17.3 mph 27.6 mph N/A   Overcast
4:53 PM 41.0 °F 32.5 °F - N/A% 29.86 in 10.0 mi East 17.3 mph 27.6 mph N/A   Overcast
5:53 PM 41.0 °F 33.1 °F - N/A% 29.88 in 10.0 mi ENE 15.0 mph 23.0 mph N/A   Overcast
6:53 PM 41.0 °F 32.2 °F - N/A% 29.86 in 10.0 mi East 18.4 mph 29.9 mph N/A   Overcast
7:53 PM 39.9 °F 32.5 °F 30.0 °F 68% 29.87 in 10.0 mi East 12.7 mph - N/A   Overcast
8:53 PM 39.0 °F 31.0 °F 28.9 °F 67% 29.85 in 10.0 mi East 13.8 mph - N/A   Overcast
9:53 PM 37.9 °F 29.6 °F 28.9 °F 70% 29.88 in 10.0 mi East 13.8 mph 20.7 mph N/A   Overcast
11:53 PM 37.0 °F 27.4 °F 28.9 °F 73% 29.78 in 10.0 mi East 17.3 mph 23.0 mph N/A   Overcast